Cloud_Cover
0 0 0 0 0 0 0 0 0 0 0 0 14 12 0 0 0 0 0 0 0 0 0 0 0 0 0 6 1 33 11 39 96 100 58 100 77 70 15 6 30 73 5 78 99
0 0 0 0 0 0 0 0 0 0 0 0 0 18 4 0 0 0 0 0 0 0 0 0 0 0 0 0 7 0 72 100 100 100 100 100 74 5 5 9 72 36 87 97 100
0 0 0 0 0 0 0 0 0 0 0 0 0 0 0 0 0 0 0 0 0 0 0 0 0 0 0 0 0 24 90 100 99 79 61 98 88 96 44 77 37 30 76 100 31
0 0 0 0 0 0 0 0 0 0 0 2 0 22 0 0 0 0 0 0 0 0 0 0 0 0 0 0 18 99 100 100 100 82 72 62 100 100 40 83 68 45 68 29 100
0 0 0 0 0 0 0 0 0 0 0 61 52 72 0 0 0 0 0 0 0 0 0 0 0 0 0 0 19 36 72 91 100 99 6 76 100 100 29 100 100 37 86 58 81
0 0 0 0 0 0 0 0 0 0 2 100 93 65 0 0 0 0 0 0 0 0 0 0 0 0 0 0 30 86 70 77 72 25 89 41 84 87 96 52 59 81 41 24 88
0 0 0 0 0 0 0 0 0 0 0 14 100 6 0 0 0 0 0 0 0 0 0 0 0 0 0 0 22 72 70 37 2 36 75 35 100 82 89 64 96 22 46 5 22
0 0 0 0 0 0 0 0 0 0 0 0 100 0 0 0 0 0 0 0 0 0 0 0 0 0 0 1 12 45 32 46 58 48 44 99 40 100 75 100 83 4 0 0 0
0 0 0 0 0 0 0 0 0 0 0 4 3 0 0 0 0 0 0 0 0 0 0 0 0 0 0 1 2 5 7 30 17 58 72 82 16 95 100 100 26 0 0 0 0
0 0 0 0 0 0 0 0 0 30 1 0 0 0 0 0 0 0 0 0 0 0 0 0 0 0 0 0 0 37 0 20 38 53 31 78 35 81 100 100 100 75 0 0 0
0 0 0 0 0 0 0 0 0 0 0 0 0 0 0 0 0 0 0 0 0 0 0 0 0 0 0 0 0 0 5 4 79 76 100 42 95 4 100 100 100 100 0 0 0
0 0 0 0 0 0 0 0 0 0 0 0 0 0 0 0 0 0 0 0 0 0 0 0 0 0 0 0 0 0 5 5 5 100 68 89 96 96 100 100 100 65 92 0 0
0 0 0 0 0 0 0 0 0 0 0 0 0 0 0 0 0 0 0 0 0 0 0 0 0 0 0 0 0 0 1 1 26 69 74 99 93 100 100 100 100 100 8 1 0
0 0 0 0 0 0 0 0 0 0 0 0 0 0 0 0 0 0 0 0 0 0 0 0 0 0 0 0 0 0 0 1 97 96 55 27 36 43 75 87 92 22 4 100 0
0 0 0 0 0 0 0 0 0 0 0 0 0 0 0 0 0 0 0 0 0 0 0 0 0 0 0 0 0 0 0 4 50 96 100 81 48 78 0 5 89 5 14 37 9
0 0 0 0 0 0 0 0 0 0 0 0 0 0 0 0 0 0 0 0 0 0 0 0 0 0 0 0 0 0 0 0 1 5 22 30 66 3 51 5 100 16 4 2 36
0 0 0 0 0 0 0 0 0 0 0 0 0 0 0 0 0 0 0 0 0 0 0 0 0 0 0 0 0 0 0 0 0 0 0 0 28 2 90 79 87 82 5 4 5
0 0 0 0 0 0 0 0 0 0 0 0 0 0 0 0 0 0 0 0 0 0 0 0 0 0 0 0 0 0 0 0 0 0 0 0 0 0 7 100 88 51 62 5 5
0 0 0 0 0 0 0 0 0 0 0 0 0 0 99 100 2 1 0 0 0 0 0 0 0 0 0 0 0 0 0 0 0 0 0 0 0 0 0 0 28 56 100 11 5
0 0 0 1 0 2 1 0 50 2 0 0 0 0 1 100 53 36 5 0 86 2 0 0 3 0 0 0 0 0 0 0 0 0 0 0 0 0 0 0 0 0 3 73 10
0 3 13 5 5 5 46 25 5 4 0 0 0 1 2 100 63 100 74 67 97 59 72 0 0 0 3 0 0 0 0 0 0 0 0 0 6 0 4 0 0 0 0 1 78
48 26 80 68 56 96 100 100 76 5 5 6 6 68 99 91 100 100 100 100 96 5 81 4 0 0 5 0 0 0 0 0 0 0 0 0 84 49 3 0 0 2 0 0 2
88 13 79 100 100 89 84 100 62 95 3 62 35 100 45 99 100 100 100 100 100 11 98 97 0 0 5 50 18 0 0 0 0 0 0 0 0 0 0 0 0 12 4 0 4
24 73 25 69 100 100 100 100 100 100 4 21 100 78 91 93 100 100 100 100 100 95 10 27 0 0 0 0 1 0 0 0 0 0 0 0 0 0 0 0 0 2 24 0 0
99 74 90 47 99 100 100 100 100 50 12 100 85 96 43 63 98 100 100 100 100 100 5 87 10 0 3 3 88 12 0 0 0 0 0 0 0 0 0 0 0 0 5 4 0
62 100 100 100 100 100 100 100 100 100 68 4 68 5 100 99 100 100 100 100 100 100 100 85 5 0 5 4 99 98 40 0 0 0 2 5 43 5 0 0 0 0 5 5 5
100 100 100 100 100 100 100 100 96 95 94 98 64 96 86 98 86 100 100 100 100 100 100 99 98 10 0 3 31 95 25 35 2 0 0 5 27 100 8 0 0 0 1 18 5